SKPV

Details ICAO SKPV (PVA)
Name EL EMBRUJO
Region Colombia
Timezone America/Bogota (UTC-5.0)
Plans Departing 3
Arriving 9
Stats Elevation 10 ft / 3 m (AMSL)
Location 13.356875° -81.358418°
Runways 1
Magnetic Variation 4.084° W
Sunrise 2018-05-23 10:59:28 UTC / 2018-05-23 05:59:28 Local
Sunset 2018-05-23 23:47:48 UTC / 2018-05-23 18:47:48 Local
Advertisement - Login to hide

Runways

ID Width Length Bearing (true) Bearing (mag) Surface Threshold Offset Overrun Length
17 50 ft / 15 m 3,851 ft / 1,174 m 169.09° 173.17° Asphalt 0 ft / 0 m 440 ft / 134 m
35 50 ft / 15 m 3,851 ft / 1,174 m 349.09° 353.17° Asphalt 0 ft / 0 m 350 ft / 107 m

Map

Weather


0- 5 10 15 20 25 30 35+ Temperature / ° C

Clouds and Precipitation
Forecast for 2018-05-23 18:00 UTC. Updated 23 minutes ago

Ground ~20,000 ft ~40,000 ft Winds

METAR

SKPV 231700Z 12008KT 350V170 9999 FEW018 OVC200 30/26 A2991

TAF

Not found

Frequencies

Tower 121.90 MHz TWR
Approach 119.30 MHz SAN ANDRES APP
Warning: Do not use this data for real-world aviation or navigation. No guarantee of current accuracy is given.